| time (UTC) | temp F | wind direction | speed MPH | gust MPH | rain 1hr in | rain 24hr in | rain mn in | humidity % | barometer mb |
| 20260902065216 | 67 | 190 | 3.0 | 7.0 | 0.00 | 0.00 | 0.00 | 75 | 1019.5 |
| 20260902064717 | 67 | 209 | 4.0 | 6.0 | 0.00 | 0.00 | 0.00 | 77 | 1019.5 |
| 20260902064208 | 66 | 239 | 4.0 | 7.0 | 0.00 | 0.00 | 0.00 | 78 | 1019.4 |
| 20260902063712 | 66 | 256 | 4.0 | 7.0 | 0.00 | 0.00 | 0.00 | 79 | 1019.5 |
| 20260902063208 | 66 | 230 | 4.0 | 7.0 | 0.00 | 0.00 | 0.00 | 79 | 1019.5 |
| 20260902062716 | 65 | 233 | 4.0 | 6.0 | 0.00 | 0.00 | 0.00 | 80 | 1019.5 |
| 20260902061708 | 64 | 247 | 3.0 | 4.0 | 0.00 | 0.00 | 0.00 | 81 | 1019.6 |
| 20260902061207 | 64 | 252 | 3.0 | 4.0 | 0.00 | 0.00 | 0.00 | 81 | 1019.6 |
| 20260902060718 | 64 | 259 | 3.0 | 4.0 | 0.00 | 0.00 | 0.00 | 82 | 1019.6 |
| 20260902055718 | 63 | 243 | 1.0 | 4.0 | 0.00 | 0.00 | 0.00 | 82 | 1019.6 |
| 20260902055237 | 63 | 207 | 2.0 | 4.0 | 0.00 | 0.00 | 0.00 | 82 | 1019.6 |
| 20260902054718 | 63 | 244 | 2.0 | 3.0 | 0.00 | 0.00 | 0.00 | 81 | 1019.6 |
| 20260902054214 | 63 | 252 | 2.0 | 4.0 | 0.00 | 0.00 | 0.00 | 81 | 1019.5 |
| 20260902053712 | 63 | 250 | 3.0 | 4.0 | 0.00 | 0.00 | 0.00 | 81 | 1019.6 |
| 20260902053219 | 63 | 251 | 3.0 | 6.0 | 0.00 | 0.00 | 0.00 | 81 | 1019.5 |
| 20260902051217 | 63 | 242 | 4.0 | 9.0 | 0.00 | 0.00 | 0.00 | 82 | 1019.5 |
| 20260902050716 | 63 | 245 | 5.0 | 9.0 | 0.00 | 0.00 | 0.00 | 82 | 1019.5 |
| 20260902050217 | 63 | 239 | 5.0 | 9.0 | 0.00 | 0.00 | 0.00 | 82 | 1019.4 |
| 20260902045713 | 63 | 236 | 4.0 | 7.0 | 0.00 | 0.00 | 0.00 | 82 | 1019.4 |
| 20260902045215 | 63 | 215 | 4.0 | 7.0 | 0.00 | 0.00 | 0.00 | 82 | 1019.4 |
| 20260902044708 | 63 | 209 | 4.0 | 7.0 | 0.00 | 0.00 | 0.00 | 82 | 1019.4 |
| 20260902044217 | 63 | 225 | 4.0 | 8.0 | 0.00 | 0.00 | 0.00 | 82 | 1019.5 |
| 20260902043717 | 63 | 222 | 4.0 | 8.0 | 0.00 | 0.00 | 0.00 | 81 | 1019.5 |
| 20260902043207 | 63 | 217 | 5.0 | 9.0 | 0.00 | 0.00 | 0.00 | 81 | 1019.4 |
| 20260902042716 | 63 | 205 | 5.0 | 9.0 | 0.00 | 0.00 | 0.00 | 81 | 1019.4 |
| 20260902042216 | 63 | 223 | 5.0 | 12.0 | 0.00 | 0.00 | 0.00 | 81 | 1019.5 |
| 20260902041715 | 63 | 207 | 5.0 | 12.0 | 0.00 | 0.00 | 0.00 | 81 | 1019.5 |
| 20260902041214 | 63 | 232 | 7.0 | 12.0 | 0.00 | 0.00 | 0.00 | 81 | 1019.4 |
| 20260902040220 | 63 | 229 | 8.0 | 11.0 | 0.00 | 0.00 | 0.00 | 81 | 1019.5 |
| 20260902035718 | 63 | 240 | 8.0 | 10.0 | 0.00 | 0.00 | 0.00 | 81 | 1019.5 |
| 20260902035242 | 63 | 233 | 6.0 | 10.0 | 0.00 | 0.00 | 0.00 | 81 | 1019.5 |
| 20260902034705 | 63 | 206 | 5.0 | 8.0 | 0.00 | 0.00 | 0.00 | 81 | 1019.5 |
| 20260902034214 | 63 | 223 | 5.0 | 8.0 | 0.00 | 0.00 | 0.00 | 81 | 1019.6 |
| 20260902033717 | 63 | 215 | 4.0 | 7.0 | 0.00 | 0.00 | 0.00 | 81 | 1019.7 |
| 20260902033234 | 63 | 217 | 3.0 | 7.0 | 0.00 | 0.00 | 0.00 | 81 | 1019.7 |
| 20260902032716 | 63 | 219 | 4.0 | 7.0 | 0.00 | 0.00 | 0.00 | 82 | 1019.5 |
| 20260902032219 | 63 | 228 | 4.0 | 7.0 | 0.00 | 0.00 | 0.00 | 82 | 1019.5 |
| 20260902031719 | 63 | 211 | 4.0 | 7.0 | 0.00 | 0.00 | 0.00 | 82 | 1019.6 |
| 20260902031216 | 63 | 209 | 3.0 | 5.0 | 0.00 | 0.00 | 0.00 | 81 | 1019.6 |
| 20260902030712 | 63 | 223 | 2.0 | 4.0 | 0.00 | 0.00 | 0.00 | 80 | 1019.5 |
| 20260902030214 | 63 | 221 | 2.0 | 5.0 | 0.00 | 0.00 | 0.00 | 80 | 1019.5 |
| 20260902025715 | 63 | 215 | 2.0 | 5.0 | 0.00 | 0.00 | 0.00 | 80 | 1019.5 |
| 20260902025209 | 63 | 220 | 3.0 | 6.0 | 0.00 | 0.00 | 0.00 | 80 | 1019.6 |
| 20260902024715 | 63 | 252 | 4.0 | 6.0 | 0.00 | 0.00 | 0.00 | 79 | 1019.6 |
| 20260902024219 | 63 | 250 | 4.0 | 6.0 | 0.00 | 0.00 | 0.00 | 80 | 1019.5 |
| 20260902023709 | 64 | 244 | 3.0 | 4.0 | 0.00 | 0.00 | 0.00 | 79 | 1019.5 |
| 20260902023210 | 64 | 257 | 2.0 | 4.0 | 0.00 | 0.00 | 0.00 | 79 | 1019.4 |
| 20260902022713 | 64 | 266 | 2.0 | 4.0 | 0.00 | 0.00 | 0.00 | 80 | 1019.4 |
| 20260902022217 | 64 | 257 | 3.0 | 4.0 | 0.00 | 0.00 | 0.00 | 80 | 1019.5 |
| 20260902021710 | 64 | 252 | 3.0 | 3.0 | 0.00 | 0.00 | 0.00 | 79 | 1019.5 |
| 20260902021219 | 64 | 225 | 2.0 | 3.0 | 0.00 | 0.00 | 0.00 | 79 | 1019.5 |
| 20260902020710 | 64 | 249 | 2.0 | 3.0 | 0.00 | 0.00 | 0.00 | 78 | 1019.5 |
| 20260902020209 | 64 | 249 | 2.0 | 3.0 | 0.00 | 0.00 | 0.00 | 78 | 1019.5 |
| 20260902015710 | 64 | 258 | 1.0 | 3.0 | 0.00 | 0.00 | 0.00 | 77 | 1019.4 |
| 20260902015207 | 64 | 224 | 1.0 | 2.0 | 0.00 | 0.00 | 0.00 | 77 | 1019.5 |
| 20260902014718 | 64 | 224 | 1.0 | 3.0 | 0.00 | 0.00 | 0.00 | 77 | 1019.5 |
| 20260902014211 | 64 | 224 | 1.0 | 3.0 | 0.00 | 0.00 | 0.00 | 77 | 1019.6 |
| 20260902013716 | 64 | 224 | 1.0 | 4.0 | 0.00 | 0.00 | 0.00 | 76 | 1019.6 |
| 20260902013205 | 64 | 224 | 2.0 | 4.0 | 0.00 | 0.00 | 0.00 | 76 | 1019.6 |
| 20260902012207 | 64 | 217 | 2.0 | 3.0 | 0.00 | 0.00 | 0.00 | 76 | 1019.6 |
| 20260902011719 | 65 | 252 | 2.0 | 3.0 | 0.00 | 0.00 | 0.00 | 76 | 1019.6 |
| 20260902011216 | 65 | 254 | 2.0 | 5.0 | 0.00 | 0.00 | 0.00 | 75 | 1019.6 |
| 20260902010208 | 65 | 253 | 3.0 | 7.0 | 0.00 | 0.00 | 0.00 | 75 | 1019.6 |
| 20260902005213 | 65 | 257 | 3.0 | 5.0 | 0.00 | 0.00 | 0.00 | 74 | 1019.5 |
| 20260902004708 | 65 | 267 | 2.0 | 4.0 | 0.00 | 0.00 | 0.00 | 75 | 1019.5 |
| 20260902004209 | 65 | 252 | 2.0 | 5.0 | 0.00 | 0.00 | 0.00 | 74 | 1019.6 |
| 20260902003209 | 65 | 238 | 3.0 | 4.0 | 0.00 | 0.00 | 0.00 | 74 | 1019.8 |
| 20260902002706 | 65 | 239 | 3.0 | 4.0 | 0.00 | 0.00 | 0.00 | 75 | 1019.8 |
| 20260902001219 | 65 | 255 | 2.0 | 4.0 | 0.00 | 0.00 | 0.00 | 76 | 1019.8 |
| 20260902000718 | 66 | 254 | 3.0 | 4.0 | 0.00 | 0.00 | 0.00 | 76 | 1019.9 |
| 20260902000215 | 66 | 246 | 3.0 | 4.0 | 0.00 | 0.00 | 0.00 | 76 | 1019.9 |
| 20260901235716 | 66 | 242 | 3.0 | 4.0 | 0.00 | 0.00 | 0.00 | 74 | 1019.9 |
| 20260901235217 | 66 | 247 | 3.0 | 4.0 | 0.00 | 0.00 | 0.00 | 73 | 1019.8 |
| 20260901234705 | 67 | 257 | 2.0 | 3.0 | 0.00 | 0.00 | 0.00 | 71 | 1019.8 |
| 20260901234215 | 67 | 282 | 1.0 | 3.0 | 0.00 | 0.00 | 0.00 | 70 | 1019.8 |
| 20260901233713 | 67 | 282 | 1.0 | 3.0 | 0.00 | 0.00 | 0.00 | 68 | 1019.8 |
| 20260901233232 | 67 | 278 | 1.0 | 3.0 | 0.00 | 0.00 | 0.00 | 67 | 1019.7 |
| 20260901232714 | 67 | 284 | 1.0 | 3.0 | 0.00 | 0.00 | 0.00 | 67 | 1019.7 |
| 20260901232219 | 67 | 299 | 2.0 | 4.0 | 0.00 | 0.00 | 0.00 | 67 | 1019.7 |
| 20260901231714 | 67 | 278 | 2.0 | 4.0 | 0.00 | 0.00 | 0.00 | 67 | 1019.7 |
| 20260901231218 | 68 | 259 | 3.0 | 4.0 | 0.00 | 0.00 | 0.00 | 68 | 1019.7 |
| 20260901230711 | 68 | 258 | 2.0 | 3.0 | 0.00 | 0.00 | 0.00 | 68 | 1019.7 |
| 20260901230207 | 68 | 273 | 2.0 | 4.0 | 0.00 | 0.00 | 0.00 | 64 | 1019.7 |
| 20260901225715 | 68 | 334 | 2.0 | 4.0 | 0.00 | 0.00 | 0.00 | 64 | 1019.8 |
| 20260901225218 | 68 | 17 | 2.0 | 3.0 | 0.00 | 0.00 | 0.00 | 64 | 1019.8 |
| 20260901224715 | 68 | 5 | 2.0 | 3.0 | 0.00 | 0.00 | 0.00 | 64 | 1019.7 |
| 20260901224220 | 68 | 321 | 2.0 | 3.0 | 0.00 | 0.01 | 0.00 | 63 | 1019.7 |
| 20260901223715 | 68 | 304 | 2.0 | 3.0 | 0.00 | 0.01 | 0.00 | 64 | 1019.7 |
| 20260901223207 | 68 | 312 | 1.0 | 3.0 | 0.00 | 0.02 | 0.00 | 63 | 1019.7 |
| 20260901222717 | 68 | 304 | 1.0 | 3.0 | 0.00 | 0.02 | 0.00 | 64 | 1019.7 |
| 20260901222209 | 68 | 304 | 1.0 | 3.0 | 0.00 | 0.03 | 0.00 | 64 | 1019.6 |
| 20260901221712 | 69 | 335 | 1.0 | 2.0 | 0.00 | 0.04 | 0.00 | 65 | 1019.6 |
| 20260901220710 | 69 | 5 | 0.0 | 3.0 | 0.00 | 0.06 | 0.00 | 63 | 1019.6 |
| 20260901220210 | 69 | 5 | 1.0 | 4.0 | 0.00 | 0.07 | 0.00 | 61 | 1019.6 |
| 20260901215717 | 69 | 5 | 2.0 | 4.0 | 0.00 | 0.08 | 0.00 | 60 | 1019.5 |
| 20260901214710 | 69 | 17 | 2.0 | 5.0 | 0.00 | 0.20 | 0.00 | 61 | 1019.5 |
| 20260901214216 | 69 | 5 | 3.0 | 5.0 | 0.00 | 0.21 | 0.00 | 61 | 1019.5 |
| 20260901213706 | 69 | 33 | 3.0 | 7.0 | 0.00 | 0.23 | 0.00 | 61 | 1019.5 |
| 20260901213218 | 69 | 21 | 3.0 | 7.0 | 0.00 | 0.24 | 0.00 | 61 | 1019.5 |
| 20260901212707 | 69 | 32 | 3.0 | 5.0 | 0.00 | 0.26 | 0.00 | 61 | 1019.5 |
| 20260901211716 | 69 | 73 | 2.0 | 4.0 | 0.00 | 0.28 | 0.00 | 61 | 1019.5 |
| 20260901211212 | 69 | 76 | 2.0 | 3.0 | 0.00 | 0.29 | 0.00 | 61 | 1019.4 |
| 20260901210713 | 70 | 51 | 2.0 | 3.0 | 0.00 | 0.30 | 0.00 | 62 | 1019.4 |
| 20260901210209 | 70 | 22 | 2.0 | 3.0 | 0.00 | 0.31 | 0.00 | 61 | 1019.3 |
| 20260901205713 | 70 | 355 | 2.0 | 4.0 | 0.00 | 0.31 | 0.00 | 61 | 1019.3 |
| 20260901205218 | 70 | 355 | 2.0 | 4.0 | 0.00 | 0.32 | 0.00 | 60 | 1019.2 |
| 20260901204716 | 70 | 355 | 2.0 | 4.0 | 0.00 | 0.34 | 0.00 | 60 | 1019.2 |
| 20260901204214 | 71 | 5 | 2.0 | 4.0 | 0.00 | 0.35 | 0.00 | 60 | 1019.2 |
| 20260901203709 | 71 | 0 | 2.0 | 4.0 | 0.00 | 0.38 | 0.00 | 59 | 1019.2 |
| 20260901202209 | 71 | 321 | 2.0 | 3.0 | 0.00 | 0.46 | 0.00 | 57 | 1019.2 |
| 20260901200704 | 71 | 284 | 1.0 | 4.0 | 0.00 | 0.47 | 0.00 | 63 | 1019.1 |
| 20260901200221 | 71 | 284 | 1.0 | 4.0 | 0.00 | 0.47 | 0.00 | 60 | 1019.1 |
| 20260901195707 | 71 | 290 | 2.0 | 4.0 | 0.00 | 0.47 | 0.00 | 57 | 1019.1 |
| 20260901195219 | 71 | 267 | 2.0 | 6.0 | 0.00 | 0.47 | 0.00 | 58 | 1019.1 |
| 20260901194718 | 71 | 277 | 2.0 | 6.0 | 0.00 | 0.47 | 0.00 | 57 | 1019.1 |
| 20260901194219 | 71 | 277 | 3.0 | 6.0 | 0.00 | 0.47 | 0.00 | 55 | 1019.1 |
| 20260901191706 | 72 | 294 | 2.0 | 4.0 | 0.00 | 0.47 | 0.00 | 57 | 1019.0 |
| 20260901191205 | 72 | 280 | 2.0 | 7.0 | 0.00 | 0.47 | 0.00 | 58 | 1019.0 |
| 20260901190718 | 72 | 253 | 3.0 | 7.0 | 0.00 | 0.47 | 0.00 | 59 | 1019.0 |
| 20260901190215 | 72 | 250 | 3.0 | 7.0 | 0.00 | 0.47 | 0.00 | 59 | 1019.0 |
| 20260901185716 | 73 | 244 | 2.0 | 3.0 | 0.00 | 0.47 | 0.00 | 58 | 1019.0 |
| 20260901185219 | 73 | 254 | 2.0 | 4.0 | 0.00 | 0.47 | 0.00 | 56 | 1018.9 |
| 20260901184713 | 73 | 255 | 2.0 | 4.0 | 0.00 | 0.47 | 0.00 | 55 | 1018.9 |
| 20260901184210 | 73 | 265 | 2.0 | 4.0 | 0.00 | 0.47 | 0.00 | 53 | 1018.8 |
| 20260901183218 | 74 | 317 | 3.0 | 5.0 | 0.00 | 0.47 | 0.00 | 48 | 1018.7 |
| 20260901182713 | 74 | 290 | 3.0 | 6.0 | 0.00 | 0.47 | 0.00 | 48 | 1018.6 |
| 20260901182208 | 74 | 340 | 3.0 | 6.0 | 0.00 | 0.47 | 0.00 | 48 | 1018.6 |
| 20260901181717 | 74 | 339 | 3.0 | 6.0 | 0.00 | 0.47 | 0.00 | 48 | 1018.6 |
| 20260901181220 | 74 | 348 | 2.0 | 6.0 | 0.00 | 0.47 | 0.00 | 47 | 1018.5 |
| 20260901180711 | 74 | 331 | 3.0 | 6.0 | 0.00 | 0.47 | 0.00 | 47 | 1018.4 |
| 20260901180205 | 75 | 337 | 3.0 | 6.0 | 0.00 | 0.47 | 0.00 | 46 | 1018.4 |
| 20260901175709 | 75 | 326 | 3.0 | 6.0 | 0.00 | 0.47 | 0.00 | 46 | 1018.3 |
| 20260901175214 | 75 | 342 | 3.0 | 9.0 | 0.00 | 0.47 | 0.00 | 46 | 1018.2 |
| 20260901174712 | 75 | 312 | 4.0 | 9.0 | 0.00 | 0.47 | 0.00 | 45 | 1018.1 |
| 20260901174212 | 76 | 348 | 5.0 | 10.0 | 0.00 | 0.47 | 0.00 | 45 | 1018.0 |
| 20260901173718 | 76 | 0 | 5.0 | 12.0 | 0.00 | 0.47 | 0.00 | 44 | 1018.0 |
| 20260901173207 | 76 | 355 | 5.0 | 12.0 | 0.00 | 0.47 | 0.00 | 44 | 1018.0 |
| 20260901172218 | 76 | 326 | 5.0 | 11.0 | 0.00 | 0.47 | 0.00 | 44 | 1017.9 |
| 20260901171714 | 76 | 355 | 6.0 | 14.0 | 0.00 | 0.47 | 0.00 | 44 | 1017.9 |
| 20260901170707 | 76 | 341 | 8.0 | 16.0 | 0.00 | 0.47 | 0.00 | 43 | 1017.9 |
| 20260901170212 | 77 | 332 | 8.0 | 16.0 | 0.00 | 0.47 | 0.00 | 43 | 1017.8 |
| 20260901165206 | 77 | 326 | 7.0 | 12.0 | 0.00 | 0.47 | 0.00 | 43 | 1017.8 |
| 20260901164716 | 77 | 320 | 6.0 | 14.0 | 0.00 | 0.47 | 0.00 | 43 | 1017.8 |
| 20260901164218 | 78 | 355 | 7.0 | 14.0 | 0.00 | 0.47 | 0.00 | 43 | 1017.8 |
| 20260901163717 | 78 | 343 | 8.0 | 16.0 | 0.00 | 0.47 | 0.00 | 43 | 1017.8 |
| 20260901163208 | 78 | 310 | 8.0 | 17.0 | 0.00 | 0.47 | 0.00 | 43 | 1017.7 |
| 20260901162711 | 78 | 310 | 10.0 | 17.0 | 0.00 | 0.47 | 0.00 | 42 | 1017.7 |
| 20260901161716 | 78 | 331 | 9.0 | 17.0 | 0.00 | 0.47 | 0.00 | 41 | 1017.8 |
| 20260901161215 | 78 | 305 | 9.0 | 17.0 | 0.00 | 0.47 | 0.00 | 42 | 1017.8 |
| 20260901160712 | 78 | 339 | 10.0 | 17.0 | 0.00 | 0.47 | 0.00 | 41 | 1017.8 |
| 20260901160214 | 78 | 340 | 8.0 | 16.0 | 0.00 | 0.47 | 0.00 | 41 | 1017.8 |
| 20260901155707 | 79 | 340 | 8.0 | 20.0 | 0.00 | 0.47 | 0.00 | 40 | 1017.9 |
| 20260901155211 | 79 | 315 | 8.0 | 20.0 | 0.00 | 0.47 | 0.00 | 41 | 1017.8 |
| 20260901154705 | 79 | 313 | 10.0 | 20.0 | 0.00 | 0.47 | 0.00 | 41 | 1017.8 |
| 20260901153712 | 79 | 336 | 12.0 | 22.0 | 0.00 | 0.47 | 0.00 | 40 | 1017.8 |
| 20260901153215 | 79 | 312 | 12.0 | 22.0 | 0.00 | 0.47 | 0.00 | 40 | 1017.8 |
| 20260901152706 | 79 | 329 | 12.0 | 19.0 | 0.00 | 0.47 | 0.00 | 40 | 1017.8 |
| 20260901152209 | 79 | 287 | 10.0 | 18.0 | 0.00 | 0.47 | 0.00 | 40 | 1017.8 |
| 20260901151738 | 79 | 0 | 11.0 | 21.0 | 0.00 | 0.47 | 0.00 | 41 | 1017.8 |
| 20260901151211 | 79 | 330 | 13.0 | 22.0 | 0.00 | 0.47 | 0.00 | 40 | 1017.8 |
| 20260901150240 | 79 | 338 | 11.0 | 22.0 | 0.00 | 0.47 | 0.00 | 41 | 1017.8 |
| 20260901145213 | 79 | 338 | 10.0 | 18.0 | 0.00 | 0.47 | 0.00 | 41 | 1017.9 |
| 20260901144706 | 79 | 311 | 10.0 | 17.0 | 0.00 | 0.47 | 0.00 | 41 | 1017.9 |
| 20260901144234 | 80 | 332 | 10.0 | 18.0 | 0.00 | 0.47 | 0.00 | 41 | 1017.9 |
| 20260901143717 | 80 | 290 | 11.0 | 21.0 | 0.00 | 0.47 | 0.00 | 41 | 1017.9 |
| 20260901143227 | 80 | 319 | 12.0 | 21.0 | 0.00 | 0.47 | 0.00 | 42 | 1018.0 |
| 20260901142706 | 80 | 311 | 12.0 | 21.0 | 0.00 | 0.47 | 0.00 | 42 | 1018.0 |
| 20260901141232 | 80 | 334 | 10.0 | 20.0 | 0.00 | 0.47 | 0.00 | 43 | 1018.0 |
| 20260901140714 | 80 | 339 | 10.0 | 19.0 | 0.00 | 0.47 | 0.00 | 42 | 1018.1 |
| 20260901140246 | 80 | 22 | 10.0 | 19.0 | 0.00 | 0.47 | 0.00 | 42 | 1018.0 |
| 20260901135716 | 80 | 340 | 9.0 | 18.0 | 0.00 | 0.47 | 0.00 | 42 | 1018.2 |
| 20260901135206 | 80 | 329 | 9.0 | 20.0 | 0.00 | 0.47 | 0.00 | 42 | 1018.2 |
| 20260901134713 | 80 | 299 | 10.0 | 20.0 | 0.00 | 0.47 | 0.00 | 41 | 1018.2 |
| 20260901134218 | 80 | 340 | 9.0 | 16.0 | 0.00 | 0.47 | 0.00 | 42 | 1018.3 |
| 20260901132715 | 79 | 333 | 12.0 | 19.0 | 0.00 | 0.47 | 0.00 | 43 | 1018.4 |
| 20260901132213 | 79 | 5 | 12.0 | 19.0 | 0.00 | 0.47 | 0.00 | 42 | 1018.4 |
| 20260901131715 | 79 | 339 | 11.0 | 18.0 | 0.00 | 0.47 | 0.00 | 42 | 1018.4 |
| 20260901131208 | 79 | 342 | 9.0 | 18.0 | 0.00 | 0.47 | 0.00 | 43 | 1018.5 |
| 20260901130716 | 79 | 0 | 9.0 | 15.0 | 0.00 | 0.47 | 0.00 | 44 | 1018.6 |
| 20260901130208 | 79 | 327 | 8.0 | 16.0 | 0.00 | 0.47 | 0.00 | 43 | 1018.7 |
| 20260901125716 | 79 | 331 | 9.0 | 16.0 | 0.00 | 0.47 | 0.00 | 44 | 1018.7 |
| 20260901125208 | 79 | 291 | 10.0 | 17.0 | 0.00 | 0.47 | 0.00 | 45 | 1018.7 |
| 20260901124708 | 79 | 333 | 10.0 | 17.0 | 0.00 | 0.47 | 0.00 | 45 | 1018.6 |
| 20260901124213 | 78 | 308 | 11.0 | 17.0 | 0.00 | 0.47 | 0.00 | 45 | 1018.7 |
| 20260901123704 | 79 | 324 | 10.0 | 16.0 | 0.00 | 0.47 | 0.00 | 45 | 1018.8 |
| 20260901122207 | 78 | 355 | 10.0 | 18.0 | 0.00 | 0.47 | 0.00 | 45 | 1018.8 |
| 20260901121705 | 78 | 329 | 9.0 | 17.0 | 0.00 | 0.47 | 0.00 | 46 | 1018.9 |
| 20260901121205 | 78 | 295 | 10.0 | 17.0 | 0.00 | 0.47 | 0.00 | 47 | 1018.9 |
| 20260901115713 | 78 | 342 | 8.0 | 16.0 | 0.00 | 0.47 | 0.00 | 47 | 1018.9 |
| 20260901115212 | 78 | 349 | 8.0 | 16.0 | 0.00 | 0.47 | 0.00 | 46 | 1019.0 |
| 20260901114708 | 77 | 342 | 8.0 | 16.0 | 0.00 | 0.47 | 0.00 | 49 | 1019.0 |
| 20260901114205 | 77 | 334 | 9.0 | 17.0 | 0.00 | 0.47 | 0.00 | 47 | 1019.1 |
| 20260901113717 | 76 | 328 | 9.0 | 17.0 | 0.00 | 0.47 | 0.00 | 49 | 1019.2 |
| 20260901113212 | 76 | 0 | 9.0 | 17.0 | 0.00 | 0.47 | 0.00 | 50 | 1019.1 |
| 20260901112212 | 75 | 338 | 8.0 | 14.0 | 0.00 | 0.47 | 0.00 | 51 | 1019.3 |
| 20260901111705 | 75 | 12 | 7.0 | 17.0 | 0.00 | 0.47 | 0.00 | 50 | 1019.2 |
| 20260901111209 | 75 | 318 | 9.0 | 17.0 | 0.00 | 0.47 | 0.00 | 50 | 1019.2 |
| 20260901110714 | 75 | 329 | 10.0 | 17.0 | 0.00 | 0.47 | 0.00 | 50 | 1019.2 |
| 20260901110215 | 75 | 351 | 9.0 | 19.0 | 0.00 | 0.47 | 0.00 | 51 | 1019.3 |
| 20260901105713 | 75 | 298 | 10.0 | 19.0 | 0.00 | 0.47 | 0.00 | 51 | 1019.2 |
| 20260901105209 | 75 | 327 | 10.0 | 17.0 | 0.00 | 0.47 | 0.00 | 50 | 1019.3 |
| 20260901104748 | 75 | 331 | 8.0 | 16.0 | 0.00 | 0.47 | 0.00 | 50 | 1019.3 |
| 20260901104211 | 75 | 346 | 7.0 | 18.0 | 0.00 | 0.47 | 0.00 | 53 | 1019.3 |
| 20260901103728 | 75 | 27 | 7.0 | 18.0 | 0.00 | 0.47 | 0.00 | 52 | 1019.3 |
| 20260901103213 | 75 | 325 | 7.0 | 18.0 | 0.00 | 0.47 | 0.00 | 51 | 1019.3 |
| 20260901102708 | 75 | 344 | 7.0 | 13.0 | 0.00 | 0.47 | 0.00 | 52 | 1019.3 |
| 20260901102212 | 75 | 321 | 7.0 | 13.0 | 0.00 | 0.47 | 0.00 | 52 | 1019.2 |
| 20260901101705 | 75 | 355 | 6.0 | 13.0 | 0.00 | 0.47 | 0.00 | 52 | 1019.3 |
| 20260901101215 | 75 | 9 | 6.0 | 15.0 | 0.00 | 0.47 | 0.00 | 51 | 1019.2 |
| 20260901100233 | 75 | 288 | 8.0 | 15.0 | 0.00 | 0.47 | 0.00 | 51 | 1019.3 |
| 20260901095714 | 75 | 346 | 7.0 | 15.0 | 0.00 | 0.47 | 0.00 | 52 | 1019.3 |
| 20260901094707 | 75 | 326 | 7.0 | 14.0 | 0.00 | 0.47 | 0.00 | 52 | 1019.2 |
| 20260901094208 | 75 | 343 | 6.0 | 11.0 | 0.00 | 0.47 | 0.00 | 55 | 1019.3 |
| 20260901093212 | 75 | 300 | 1.0 | 8.0 | 0.00 | 0.47 | 0.00 | 56 | 1019.5 |
| 20260901092716 | 75 | 315 | 2.0 | 8.0 | 0.00 | 0.47 | 0.00 | 55 | 1019.5 |
| 20260901092217 | 75 | 279 | 4.0 | 8.0 | 0.00 | 0.47 | 0.00 | 58 | 1019.5 |
| 20260901091709 | 75 | 267 | 2.0 | 9.0 | 0.00 | 0.47 | 0.00 | 57 | 1019.5 |
| 20260901091205 | 74 | 252 | 3.0 | 12.0 | 0.00 | 0.47 | 0.00 | 56 | 1019.5 |
| 20260901090207 | 74 | 295 | 5.0 | 12.0 | 0.00 | 0.47 | 0.00 | 60 | 1019.6 |
| 20260901085721 | 74 | 174 | 3.0 | 13.0 | 0.00 | 0.47 | 0.00 | 60 | 1019.5 |
| 20260901084717 | 74 | 323 | 7.0 | 13.0 | 0.00 | 0.47 | 0.00 | 57 | 1019.6 |
| 20260901084219 | 74 | 325 | 5.0 | 13.0 | 0.00 | 0.47 | 0.00 | 59 | 1019.6 |
| 20260901083714 | 74 | 319 | 6.0 | 13.0 | 0.00 | 0.47 | 0.00 | 59 | 1019.6 |
| 20260901083211 | 73 | 323 | 6.0 | 12.0 | 0.00 | 0.47 | 0.00 | 60 | 1019.5 |
| 20260901082705 | 73 | 296 | 6.0 | 12.0 | 0.00 | 0.47 | 0.00 | 61 | 1019.4 |
| 20260901082209 | 73 | 319 | 5.0 | 12.0 | 0.00 | 0.47 | 0.00 | 61 | 1019.5 |
| 20260901081219 | 72 | 328 | 4.0 | 8.0 | 0.00 | 0.47 | 0.00 | 65 | 1019.5 |
| 20260901080713 | 72 | 333 | 3.0 | 9.0 | 0.00 | 0.47 | 0.00 | 66 | 1019.4 |
| 20260901080211 | 72 | 44 | 4.0 | 9.0 | 0.00 | 0.47 | 0.00 | 68 | 1019.5 |
| 20260901075710 | 71 | 57 | 4.0 | 10.0 | 0.00 | 0.47 | 0.00 | 69 | 1019.5 |
| 20260901074740 | 71 | 327 | 4.0 | 9.0 | 0.00 | 0.47 | 0.00 | 69 | 1019.3 |
| 20260901074216 | 70 | 5 | 2.0 | 7.0 | 0.00 | 0.47 | 0.00 | 71 | 1019.3 |
| 20260901073713 | 70 | 254 | 3.0 | 10.0 | 0.00 | 0.47 | 0.00 | 72 | 1019.3 |
| 20260901072718 | 69 | 346 | 4.0 | 10.0 | 0.00 | 0.47 | 0.00 | 73 | 1019.3 |
| 20260901072215 | 68 | 265 | 5.0 | 10.0 | 0.00 | 0.47 | 0.00 | 75 | 1019.2 |
| 20260901071708 | 67 | 292 | 5.0 | 10.0 | 0.00 | 0.47 | 0.00 | 78 | 1019.2 |
| 20260901071207 | 67 | 253 | 4.0 | 9.0 | 0.00 | 0.47 | 0.00 | 79 | 1019.2 |
| 20260901070212 | 65 | 232 | 2.0 | 4.0 | 0.00 | 0.47 | 0.00 | 83 | 1019.1 |